Radiation Dose at Monitoring Post of Fukushima Daini Nuclear Power Station
Date,Time,MP-1(microSv/h),MP-2(microSv/h),MP-3(microSv/h),MP-4(microSv/h),MP-5(microSv/h),MP-6(microSv/h),MP-7(microSv/h),Wind Direction,Wind Velocity(m/s),Rain
2019/01/03,00:00,0.225,0.194,0.314,0.293,0.278,0.157,0.095,south,0.9,No
2019/01/03,00:10,0.226,0.193,0.314,0.295,0.277,0.157,0.095,south-southwest,1.3,No
2019/01/03,00:20,0.226,0.193,0.312,0.295,0.277,0.156,0.094,south-southwest,2.4,No
2019/01/03,00:30,0.226,0.193,0.312,0.295,0.277,0.156,0.094,south-southwest,2.3,No
2019/01/03,00:40,0.225,0.194,0.314,0.294,0.276,0.156,0.095,south-southwest,2.8,No
2019/01/03,00:50,0.225,0.193,0.315,0.294,0.277,0.156,0.095,south-southwest,3.3,No
2019/01/03,01:00,0.226,0.194,0.314,0.295,0.277,0.156,0.094,south-southwest,3.2,No
2019/01/03,01:10,0.226,0.193,0.315,0.295,0.278,0.156,0.095,southwest,2.5,No
2019/01/03,01:20,0.226,0.194,0.314,0.295,0.277,0.156,0.095,south-southwest,3.3,No
2019/01/03,01:30,0.226,0.193,0.314,0.297,0.277,0.157,0.095,south-southwest,3.7,No
2019/01/03,01:40,0.226,0.193,0.316,0.295,0.277,0.156,0.095,south-southwest,3.3,No
2019/01/03,01:50,0.225,0.193,0.313,0.295,0.278,0.156,0.095,south-southwest,3.1,No
2019/01/03,02:00,0.225,0.194,0.314,0.295,0.278,0.156,0.096,south-southwest,3.5,No
2019/01/03,02:10,0.226,0.194,0.315,0.294,0.277,0.157,0.095,south-southwest,3.5,No
2019/01/03,02:20,0.225,0.193,0.315,0.295,0.278,0.157,0.095,southwest,3.9,No
2019/01/03,02:30,0.226,0.193,0.314,0.294,0.277,0.157,0.095,south-southwest,3.9,No
2019/01/03,02:40,0.226,0.192,0.314,0.295,0.278,0.157,0.095,southwest,3.9,No
2019/01/03,02:50,0.225,0.194,0.314,0.295,0.278,0.156,0.096,west-southwest,3.4,No
2019/01/03,03:00,0.226,0.194,0.315,0.295,0.278,0.156,0.095,west-southwest,3.2,No
2019/01/03,03:10,0.225,0.194,0.316,0.295,0.279,0.156,0.095,west,2.7,No
2019/01/03,03:20,0.225,0.193,0.315,0.295,0.277,0.157,0.096,west-southwest,2.4,No
2019/01/03,03:30,0.225,0.193,0.314,0.295,0.277,0.156,0.096,west-southwest,2.4,No
2019/01/03,03:40,0.225,0.194,0.315,0.294,0.278,0.155,0.095,west,2.7,No
2019/01/03,03:50,0.227,0.193,0.316,0.295,0.278,0.157,0.096,west-northwest,3.0,No
2019/01/03,04:00,0.226,0.194,0.312,0.294,0.277,0.156,0.095,west-southwest,2.3,No
2019/01/03,04:10,0.226,0.194,0.315,0.294,0.277,0.157,0.095,west,3.0,No
2019/01/03,04:20,0.226,0.195,0.314,0.293,0.278,0.157,0.095,west,4.5,No
2019/01/03,04:30,0.225,0.193,0.314,0.295,0.278,0.156,0.095,west,4.6,No
2019/01/03,04:40,0.226,0.193,0.314,0.295,0.278,0.156,0.096,west-southwest,4.3,No
2019/01/03,04:50,0.224,0.193,0.314,0.295,0.278,0.156,0.095,west,3.5,No
2019/01/03,05:00,0.226,0.194,0.315,0.293,0.279,0.156,0.096,west,3.1,No
2019/01/03,05:10,0.225,0.194,0.313,0.294,0.277,0.157,0.095,west-southwest,3.7,No
2019/01/03,05:20,0.225,0.194,0.315,0.296,0.277,0.156,0.096,west-southwest,3.2,No
2019/01/03,05:30,0.226,0.194,0.314,0.295,0.277,0.156,0.095,west-southwest,3.4,No
2019/01/03,05:40,0.225,0.193,0.315,0.294,0.277,0.157,0.095,west-southwest,2.6,No
2019/01/03,05:50,0.226,0.193,0.315,0.295,0.277,0.156,0.096,west-southwest,3.0,No
2019/01/03,06:00,0.225,0.194,0.314,0.296,0.277,0.157,0.095,west-southwest,3.4,No
2019/01/03,06:10,0.225,0.194,0.314,0.296,0.277,0.156,0.095,west-southwest,2.9,No
2019/01/03,06:20,0.227,0.193,0.314,0.296,0.277,0.157,0.095,west,3.2,No
2019/01/03,06:30,0.225,0.194,0.314,0.294,0.276,0.156,0.095,west,4.3,No
2019/01/03,06:40,0.226,0.194,0.314,0.294,0.276,0.156,0.095,west,4.0,No
2019/01/03,06:50,0.225,0.194,0.312,0.294,0.279,0.156,0.094,west,2.1,No
2019/01/03,07:00,0.226,0.194,0.313,0.295,0.277,0.156,0.095,west,2.9,No
2019/01/03,07:10,0.225,0.195,0.314,0.296,0.277,0.157,0.094,west,1.8,No
2019/01/03,07:20,0.226,0.193,0.314,0.293,0.276,0.156,0.095,west,2.1,No
2019/01/03,07:30,0.225,0.193,0.315,0.295,0.278,0.156,0.095,west,0.9,No
2019/01/03,07:40,0.225,0.193,0.314,0.293,0.277,0.156,0.095,west-southwest,0.6,No
2019/01/03,07:50,0.225,0.193,0.315,0.295,0.278,0.156,0.095,west,0.9,No
2019/01/03,08:00,0.227,0.194,0.314,0.294,0.277,0.157,0.095,west-southwest,3.2,No
2019/01/03,08:10,0.226,0.195,0.312,0.295,0.278,0.157,0.095,west,4.0,No
2019/01/03,08:20,0.226,0.194,0.313,0.293,0.278,0.157,0.095,west,4.4,No
2019/01/03,08:30,0.225,0.194,0.314,0.293,0.278,0.156,0.095,west-northwest,1.1,No
2019/01/03,08:40,0.226,0.193,0.315,0.295,0.277,0.157,0.095,north-northwest,2.5,No
2019/01/03,08:50,0.226,0.194,0.313,0.293,0.276,0.157,0.096,west,3.1,No
2019/01/03,09:00,0.225,0.193,0.312,0.293,0.278,0.156,0.095,west-northwest,5.1,No
2019/01/03,09:10,0.226,0.193,0.314,0.294,0.278,0.155,0.095,west,5.0,No
2019/01/03,09:20,0.227,0.195,0.313,0.294,0.277,0.156,0.095,west,5.3,No
2019/01/03,09:30,0.227,0.194,0.313,0.291,0.278,0.156,0.094,west-northwest,3.2,No
2019/01/03,09:40,0.225,0.194,0.314,0.293,0.278,0.157,0.095,north,3.0,No
2019/01/03,09:50,0.226,0.194,0.314,0.295,0.277,0.157,0.094,north-northwest,2.5,No
2019/01/03,10:00,0.225,0.194,0.313,0.293,0.278,0.156,0.095,north,1.5,No
2019/01/03,10:10,0.226,0.194,0.315,0.295,0.279,0.156,0.095,northeast,2.3,No
2019/01/03,10:20,0.224,0.193,0.314,0.296,0.277,0.156,0.096,east-northeast,1.8,No
2019/01/03,10:30,0.226,0.194,0.314,0.294,0.278,0.156,0.095,-,CALM,No
2019/01/03,10:40,0.226,0.193,0.313,0.294,0.277,0.158,0.095,-,CALM,No
2019/01/03,10:50,0.224,0.193,0.314,0.295,0.278,0.157,0.095,north-northeast,4.2,No
2019/01/03,11:00,0.224,0.193,0.314,0.294,0.277,0.156,0.094,north,4.1,No
2019/01/03,11:10,0.226,0.193,0.313,0.295,0.280,0.157,0.095,north,4.0,No
2019/01/03,11:20,0.226,0.194,0.313,0.294,0.278,0.156,0.095,north-northwest,2.4,No
2019/01/03,11:30,0.225,0.193,0.314,0.294,0.278,0.157,0.095,north-northwest,5.3,No
2019/01/03,11:40,0.227,0.193,0.314,0.294,0.279,0.156,0.095,northwest,8.2,No
2019/01/03,11:50,0.224,0.192,0.312,0.295,0.277,0.157,0.094,northwest,8.8,No
2019/01/03,12:00,0.225,0.194,0.315,0.293,0.278,0.155,0.095,northwest,8.6,No
2019/01/03,12:10,0.225,0.193,0.313,0.295,0.280,0.157,0.095,west-northwest,5.2,No
2019/01/03,12:20,0.226,0.195,0.313,0.295,0.279,0.156,0.095,west,8.3,No
2019/01/03,12:30,0.225,0.194,0.313,0.295,0.279,0.157,0.095,west-northwest,10.7,No
2019/01/03,12:40,0.225,0.193,0.314,0.295,0.279,0.157,0.095,west-northwest,10.3,No
2019/01/03,12:50,0.225,0.193,0.315,0.296,0.278,0.156,0.095,north,4.0,No
2019/01/03,13:00,0.225,0.194,0.314,0.293,0.279,0.157,0.095,northwest,4.6,No
2019/01/03,13:10,0.224,0.194,0.313,0.293,0.280,0.157,0.095,west-northwest,6.1,No
2019/01/03,13:20,0.224,0.194,0.313,0.294,0.279,0.156,0.095,northwest,5.4,No
2019/01/03,13:30,0.226,0.193,0.312,0.294,0.278,0.157,0.095,north-northwest,5.9,No
2019/01/03,13:40,0.226,0.194,0.314,0.293,0.279,0.157,0.095,north,5.0,No
2019/01/03,13:50,0.226,0.193,0.315,0.296,0.278,0.157,0.095,north-northwest,5.5,No
2019/01/03,14:00,0.225,0.194,0.315,0.294,0.278,0.157,0.095,north,4.3,No
2019/01/03,14:10,0.226,0.194,0.313,0.294,0.280,0.157,0.096,north-northwest,4.9,No
2019/01/03,14:20,0.225,0.195,0.316,0.293,0.278,0.155,0.095,north-northwest,5.3,No
2019/01/03,14:30,0.226,0.194,0.315,0.295,0.278,0.156,0.095,north-northwest,4.8,No
2019/01/03,14:40,0.226,0.193,0.315,0.295,0.279,0.156,0.095,north,4.6,No
2019/01/03,14:50,0.226,0.194,0.314,0.295,0.280,0.156,0.094,north-northwest,5.7,No
2019/01/03,15:00,0.225,0.194,0.315,0.295,0.279,0.156,0.094,north,7.0,No
2019/01/03,15:10,0.226,0.195,0.314,0.295,0.279,0.156,0.095,north-northwest,5.5,No
2019/01/03,15:20,0.225,0.194,0.315,0.295,0.279,0.156,0.095,northwest,4.9,No
2019/01/03,15:30,0.226,0.193,0.315,0.295,0.278,0.156,0.095,north-northwest,4.9,No
2019/01/03,15:40,0.226,0.194,0.315,0.295,0.278,0.157,0.096,north-northwest,5.1,No
2019/01/03,15:50,0.226,0.194,0.316,0.295,0.279,0.157,0.095,north-northwest,5.1,No
2019/01/03,16:00,0.226,0.195,0.315,0.294,0.278,0.156,0.095,north-northwest,3.8,No
2019/01/03,16:10,0.226,0.195,0.313,0.294,0.278,0.157,0.095,north-northwest,4.7,No
2019/01/03,16:20,0.227,0.194,0.315,0.295,0.279,0.156,0.095,north-northwest,3.9,No
2019/01/03,16:30,0.226,0.194,0.315,0.295,0.279,0.156,0.095,north-northwest,3.6,No
2019/01/03,16:40,0.226,0.195,0.314,0.295,0.278,0.157,0.094,north-northwest,3.3,No
2019/01/03,16:50,0.225,0.195,0.314,0.295,0.279,0.157,0.095,north-northwest,3.0,No
2019/01/03,17:00,0.226,0.194,0.314,0.295,0.278,0.157,0.095,north-northwest,3.3,No
2019/01/03,17:10,0.225,0.194,0.314,0.294,0.277,0.155,0.094,northwest,3.1,No
2019/01/03,17:20,0.226,0.194,0.314,0.294,0.277,0.157,0.095,northwest,3.8,No
2019/01/03,17:30,0.226,0.196,0.314,0.295,0.278,0.157,0.095,northwest,4.0,No
2019/01/03,17:40,0.225,0.194,0.314,0.295,0.278,0.157,0.096,northwest,4.0,No
2019/01/03,17:50,0.226,0.194,0.314,0.295,0.279,0.156,0.095,northwest,3.5,No
2019/01/03,18:00,0.226,0.194,0.313,0.296,0.278,0.157,0.095,northwest,4.1,No
2019/01/03,18:10,0.225,0.194,0.315,0.294,0.278,0.156,0.095,northwest,3.0,No
2019/01/03,18:20,0.226,0.194,0.316,0.295,0.278,0.156,0.095,northwest,4.0,No
2019/01/03,18:30,0.226,0.194,0.315,0.295,0.278,0.156,0.095,northwest,4.5,No
2019/01/03,18:40,0.225,0.194,0.314,0.295,0.277,0.157,0.095,northwest,5.2,No
2019/01/03,18:50,0.225,0.194,0.315,0.295,0.277,0.156,0.095,northwest,5.4,No
2019/01/03,19:00,0.226,0.194,0.313,0.293,0.278,0.156,0.095,northwest,5.1,No
2019/01/03,19:10,0.226,0.195,0.314,0.295,0.278,0.157,0.095,north-northwest,5.1,No
2019/01/03,19:20,0.225,0.194,0.314,0.296,0.278,0.157,0.095,northwest,5.9,No
2019/01/03,19:30,0.226,0.194,0.314,0.294,0.278,0.157,0.095,northwest,4.2,No
2019/01/03,19:40,0.226,0.194,0.314,0.294,0.279,0.156,0.095,northwest,5.3,No
2019/01/03,19:50,0.225,0.193,0.314,0.295,0.277,0.157,0.095,northwest,4.6,No
2019/01/03,20:00,0.226,0.193,0.315,0.295,0.278,0.156,0.094,northwest,4.4,No
2019/01/03,20:10,0.227,0.193,0.315,0.294,0.278,0.156,0.095,northwest,4.3,No
2019/01/03,20:20,0.226,0.194,0.314,0.295,0.278,0.156,0.095,northwest,4.1,No
2019/01/03,20:30,0.226,0.193,0.314,0.295,0.278,0.157,0.095,northwest,3.9,No
2019/01/03,20:40,0.225,0.193,0.314,0.294,0.278,0.158,0.095,northwest,4.1,No
2019/01/03,20:50,0.227,0.193,0.314,0.295,0.278,0.156,0.096,northwest,4.5,No
2019/01/03,21:00,0.226,0.194,0.314,0.295,0.278,0.156,0.095,northwest,4.3,No
2019/01/03,21:10,0.225,0.192,0.314,0.294,0.278,0.156,0.095,northwest,2.7,No
2019/01/03,21:20,0.226,0.193,0.315,0.294,0.277,0.156,0.094,west-northwest,2.3,No
2019/01/03,21:30,0.225,0.193,0.314,0.294,0.276,0.156,0.095,northwest,1.4,No
2019/01/03,21:40,0.225,0.193,0.314,0.295,0.278,0.156,0.096,northwest,1.1,No
2019/01/03,21:50,0.226,0.192,0.314,0.295,0.278,0.156,0.095,northwest,1.4,No
2019/01/03,22:00,0.226,0.194,0.313,0.295,0.276,0.157,0.096,north-northwest,2.0,No
2019/01/03,22:10,0.226,0.194,0.314,0.294,0.277,0.157,0.096,north-northwest,2.4,No
2019/01/03,22:20,0.225,0.194,0.314,0.294,0.278,0.156,0.095,northwest,2.8,No
2019/01/03,22:30,0.226,0.194,0.315,0.294,0.278,0.156,0.095,northwest,3.1,No
2019/01/03,22:40,0.226,0.194,0.313,0.295,0.278,0.157,0.095,west-northwest,3.1,No
2019/01/03,22:50,0.225,0.193,0.314,0.296,0.278,0.156,0.095,northwest,3.0,No
2019/01/03,23:00,0.226,0.192,0.314,0.294,0.278,0.156,0.096,northwest,5.2,No
2019/01/03,23:10,0.226,0.192,0.315,0.295,0.278,0.157,0.096,west-northwest,5.6,No
2019/01/03,23:20,0.225,0.194,0.314,0.295,0.277,0.156,0.096,northwest,5.4,No
2019/01/03,23:30,0.226,0.194,0.313,0.294,0.279,0.156,0.094,northwest,4.9,No
2019/01/03,23:40,0.225,0.194,0.313,0.295,0.277,0.157,0.095,northwest,4.4,No
2019/01/03,23:50,0.224,0.193,0.314,0.296,0.278,0.157,0.095,northwest,3.8,No
